Regional Weather Roundup
Issued by NWS Charleston, WV

Home | Current Version | Previous Version | Graphics & Text | Print | Product List | Glossary On
Versions: 1 2 3 4 5 6 7 8 9 10 11 12 13 14 15 16 17 18 19 20 21 22 23 24 25 26 27 28 29 30 31 32 33 34 35 36 37 38 39 40 41 42 43 44 45 46 47 48 49 50
000
ASUS41 KRLX 291210
RWRRLX
West Virginia Regional Weather Roundup
National Weather Service Charleston WV
800 AM EDT SAT APR 29 2017

Note: "fair" indicates few or no clouds below 12,000 feet with no
significant weather and/or obstructions to visibility.

WVZ003-291300-
Northern Panhandle of West Virginia

CITY           SKY/WX    TMP DP  RH WIND       PRES   REMARKS
WHEELING       LGT RAIN  62  58  86 SW10      30.09R
$$

WVZ009-291300-
Northwest West Virginia

CITY           SKY/WX    TMP DP  RH WIND       PRES   REMARKS
PARKERSBURG    CLOUDY    62  60  93 SE7       30.08F
$$

WVZ006-291300-
Western West Virginia

CITY           SKY/WX    TMP DP  RH WIND       PRES   REMARKS
HUNTINGTON     PTSUNNY   66  61  84 VRB3      30.06F
$$

WVZ015-291300-
West Central West Virginia

CITY           SKY/WX    TMP DP  RH WIND       PRES   REMARKS
CHARLESTON     PTSUNNY   65  61  87 SE6       30.12F
$$

WVZ022-031-291300-
North Central West Virginia

CITY           SKY/WX    TMP DP  RH WIND       PRES   REMARKS
CLARKSBURG     LGT RAIN  61  58  90 S5        30.17R
MORGANTOWN     CLOUDY    61  58  90 S7        30.17R
$$

WVZ025-035-042-045-291300-
Southern West Virginia

CITY           SKY/WX    TMP DP  RH WIND       PRES   REMARKS
BECKLEY        CLOUDY    69  57  65 CALM      30.20R
LOGAN          CLOUDY    70  61  73 CALM      30.16R
BLUEFIELD      CLOUDY    67  55  65 SW3       30.23R
LEWISBURG      CLOUDY    60  58  94 CALM      30.22R
$$

WVZ047-291300-
Northern Mountains of West Virginia

CITY           SKY/WX    TMP DP  RH WIND       PRES   REMARKS
ELKINS         CLOUDY    61  57  87 NW3       30.22R
$$

WVZ052-291300-
Eastern Panhandle of West Virginia

CITY           SKY/WX    TMP DP  RH WIND       PRES   REMARKS
MARTINSBURG    CLOUDY    72  57  59 NW17G37   30.07R
PETERSBURG     CLOUDY    64  62  94 S6        30.18R
$$



USA.gov is the U.S. government's official web portal to all federal, state and local government web resources and services.